sat.trackr.live / text

‹ back to catalog

STARLINK-5204

NORAD 54101 · 2022-136BC

PAYLOAD ACTIVE UNKNOWN

§ Identity

Operator
Country
US
Launch date
2022-10-20
Launch site
AFETR
Launch vehicle
Mass (kg)
RCS (m²)

Purposes: comms

External: N2YO · Heavens-Above · Gunter

§ Orbital elements

Epoch: 2026-09-20T23:21:44.825472Z

Period
94.01 min
Inclination
53.1592°
Eccentricity
0.0001104
Mean motion
15.31705346 rev/d
Perigee alt
470.0 km
Apogee alt
471.5 km
Semi-major
6,848.9 km
B*
2.2108e-5
RAAN
148.6367°
Arg perigee
95.1172°
Mean anomaly
264.9956°
Rev number
21,686

§ Raw data

STARLINK-52041 54101U 22136BC  26263.97343548  .00000321  00000+0  22108-4 0  99992 54101  53.1592 148.6367 0001104  95.1172 264.9956 15.31705346216863

JSON: /api/v1/satellites/54101 · /tle

For live sub-satellite position, see the globe view (requires WebGL).

§ Visibility from observer

Set your observer location to see the next 7 days of passes ≥ 10°. The values pass through the URL so the page stays shareable.

No JS? Fill the form by hand. The geolocation button needs JavaScript.